Location: Atlantic Beach
(40.5890°N, 73.7290°W)
Time: 00:57:02
(UTC+00:00)

Envisat - Pass Details

Date: 29 January 2021
Orbit: 764 x 766 km, 98.1° (Epoch: 03 March)

Event Time Altitude Azimuth Distance (km) Brightness Sun altitude
Rises 10:26:54 0° 16° (NNE) 3,240 6.4 -19.2°
Reaches altitude 10° 10:29:14 10° 19° (NNE) 2,309 5.6 -18.7°
Maximum altitude 10:34:17 64° 101° (E) 844 3.4 -17.8°
Drops below altitude 10° 10:39:18 10° 183° (S) 2,292 5.5 -16.8°
Sets 10:41:37 0° 186° (S) 3,214 6.3 -16.4°
